AAL3312 CYYC-KDFW

Flight info

Callsign AAL3312
Flight time 2h 55m
Altitude 35000
Route GADKI Q957 VOBUK DCT GTF DCT COD DCT BOY DCT FIKLA DCT RIDJE J56 TOMSN DCT BJC DCT EZEEE DCT MDANO JOVEM6
Aircraft B738/M-SDE2E3FGHIRWXY/LB1

Departure

Time 2026-05-05 23:51
Airport Calgary International Airport (CYYC)

Arrival

Time 2026-05-06 02:47
Airport Dallas Fort Worth International Airport (KDFW)
Time Latitude Longitude Altitude Speed Heading
2026-05-05 23:16 51.13085 -114.00225 3555 ft 0 kts 214°
2026-05-05 23:38 51.13094 -114.00214 3555 ft 3 kts 214°
2026-05-05 23:38 51.13109 -114.00198 3556 ft 3 kts 214°
2026-05-05 23:38 51.13121 -114.00175 3554 ft 3 kts 261°
2026-05-05 23:39 51.13124 -114.00146 3555 ft 3 kts 261°
2026-05-05 23:39 51.13127 -114.00116 3554 ft 3 kts 254°
2026-05-05 23:39 51.13135 -114.00085 3558 ft 3 kts 246°
2026-05-05 23:39 51.13146 -114.00061 3555 ft 3 kts 214°
2026-05-05 23:40 51.13165 -114.00053 3557 ft 3 kts 146°
2026-05-05 23:40 51.13174 -114.00066 3558 ft 0 kts 135°
2026-05-05 23:42 51.13172 -114.00062 3558 ft 3 kts 135°
2026-05-05 23:42 51.13163 -113.99971 3558 ft 13 kts 93°
2026-05-05 23:42 51.13158 -113.99794 3558 ft 17 kts 92°
2026-05-05 23:42 51.13159 -113.99612 3559 ft 16 kts 89°
2026-05-05 23:43 51.13133 -113.99456 3559 ft 15 kts 154°
2026-05-05 23:43 51.13028 -113.99445 3558 ft 15 kts 180°
2026-05-05 23:43 51.12913 -113.99445 3558 ft 19 kts 180°
2026-05-05 23:43 51.12763 -113.99446 3556 ft 24 kts 180°
2026-05-05 23:44 51.12577 -113.99448 3559 ft 29 kts 180°
2026-05-05 23:44 51.12363 -113.99445 3559 ft 33 kts 179°
2026-05-05 23:44 51.12121 -113.99446 3559 ft 37 kts 180°
2026-05-05 23:44 51.11899 -113.99446 3559 ft 19 kts 180°
2026-05-05 23:45 51.11823 -113.99572 3559 ft 18 kts 269°
2026-05-05 23:45 51.11824 -113.99782 3558 ft 22 kts 270°
2026-05-05 23:45 51.11824 -114.00055 3558 ft 28 kts 270°
2026-05-05 23:45 51.11825 -114.00384 3558 ft 30 kts 270°
2026-05-05 23:46 51.11714 -114.00575 3555 ft 24 kts 210°
2026-05-05 23:46 51.11571 -114.00689 3557 ft 22 kts 187°
2026-05-05 23:46 51.11435 -114.00783 3557 ft 21 kts 218°
2026-05-05 23:46 51.11416 -114.00975 3558 ft 18 kts 271°
2026-05-05 23:47 51.11419 -114.01169 3558 ft 18 kts 271°
2026-05-05 23:47 51.11422 -114.01390 3558 ft 21 kts 271°
2026-05-05 23:47 51.11424 -114.01613 3558 ft 20 kts 271°
2026-05-05 23:47 51.11393 -114.01791 3556 ft 16 kts 199°
2026-05-05 23:48 51.11281 -114.01798 3558 ft 16 kts 180°
2026-05-05 23:48 51.11142 -114.01798 3557 ft 24 kts 180°
2026-05-05 23:48 51.10947 -114.01798 3558 ft 32 kts 180°
2026-05-05 23:48 51.10725 -114.01797 3557 ft 31 kts 180°
2026-05-05 23:49 51.10520 -114.01798 3558 ft 29 kts 180°
2026-05-05 23:49 51.10323 -114.01800 3558 ft 28 kts 180°
2026-05-05 23:49 51.10136 -114.01800 3558 ft 26 kts 180°
2026-05-05 23:49 51.09961 -114.01800 3554 ft 24 kts 180°
2026-05-05 23:50 51.09797 -114.01800 3558 ft 23 kts 180°
2026-05-05 23:50 51.09694 -114.01858 3558 ft 15 kts 246°
2026-05-05 23:50 51.09691 -114.02025 3559 ft 15 kts 271°
2026-05-05 23:50 51.09742 -114.02138 3560 ft 17 kts 358°
2026-05-05 23:51 51.09950 -114.02138 3561 ft 59 kts
2026-05-05 23:51 51.10627 -114.02136 3557 ft 130 kts
2026-05-05 23:51 51.11706 -114.02121 3681 ft 177 kts
2026-05-05 23:51 51.13015 -114.02084 4293 ft 201 kts
2026-05-05 23:52 51.14416 -114.02177 5301 ft 195 kts 358°
2026-05-05 23:52 51.15723 -114.02276 6286 ft 192 kts 358°
2026-05-05 23:52 51.17102 -114.02105 6518 ft 211 kts 23°
2026-05-05 23:52 51.18180 -114.00452 6706 ft 232 kts 64°
2026-05-05 23:53 51.18361 -113.97837 7026 ft 250 kts 98°
2026-05-05 23:53 51.17646 -113.95256 7467 ft 264 kts 127°
2026-05-05 23:53 51.16181 -113.93403 7905 ft 281 kts 155°
2026-05-05 23:53 51.14331 -113.92349 8469 ft 290 kts 162°
2026-05-05 23:54 51.12381 -113.91398 9152 ft 296 kts 164°
2026-05-05 23:54 51.10395 -113.90452 9889 ft 301 kts 164°
2026-05-05 23:54 51.08364 -113.89484 10390 ft 314 kts 164°
2026-05-05 23:54 51.06223 -113.88456 10557 ft 337 kts 164°
2026-05-05 23:55 51.03920 -113.87340 10814 ft 356 kts 163°
2026-05-05 23:55 51.01591 -113.86204 11311 ft 365 kts 163°
2026-05-05 23:55 50.99147 -113.85006 11953 ft 370 kts 163°
2026-05-05 23:55 50.96663 -113.83786 12572 ft 377 kts 163°
2026-05-05 23:56 50.94166 -113.82559 13214 ft 382 kts 163°
2026-05-05 23:56 50.91669 -113.81333 13822 ft 388 kts 162°
2026-05-05 23:56 50.89064 -113.80055 14364 ft 395 kts 162°
2026-05-05 23:56 50.86416 -113.78757 14865 ft 402 kts 162°
2026-05-05 23:57 50.83719 -113.77436 15374 ft 409 kts 161°
2026-05-05 23:57 50.80973 -113.76094 15894 ft 415 kts 161°
2026-05-05 23:57 50.78191 -113.74736 16420 ft 422 kts 161°
2026-05-05 23:57 50.75358 -113.73354 16905 ft 429 kts 161°
2026-05-05 23:58 50.72482 -113.71954 17397 ft 436 kts 160°
2026-05-05 23:58 50.69565 -113.70535 17888 ft 442 kts 160°
2026-05-05 23:58 50.66639 -113.69114 18361 ft 449 kts 160°
2026-05-05 23:58 50.63640 -113.67614 18802 ft 454 kts 159°
2026-05-05 23:59 50.60634 -113.66044 19326 ft 456 kts 158°
2026-05-05 23:59 50.57624 -113.64448 19877 ft 458 kts 158°
2026-05-05 23:59 50.54600 -113.62840 20387 ft 461 kts 158°
2026-05-05 23:59 50.51545 -113.61221 20844 ft 465 kts 158°
2026-05-06 00:00 50.48471 -113.59601 21319 ft 468 kts 158°
2026-05-06 00:00 50.45368 -113.57975 21827 ft 471 kts 158°
2026-05-06 00:00 50.42256 -113.56350 22290 ft 474 kts 158°
2026-05-06 00:00 50.39158 -113.54736 22742 ft 477 kts 158°
2026-05-06 00:01 50.36004 -113.53097 23209 ft 480 kts 158°
2026-05-06 00:01 50.32821 -113.51445 23647 ft 484 kts 158°
2026-05-06 00:01 50.29601 -113.49775 23920 ft 490 kts 158°
2026-05-06 00:01 50.26350 -113.48091 24283 ft 493 kts 158°
2026-05-06 00:02 50.23089 -113.46405 24678 ft 495 kts 158°
2026-05-06 00:02 50.19816 -113.44716 25037 ft 497 kts 158°
2026-05-06 00:02 50.16516 -113.43015 25367 ft 500 kts 158°
2026-05-06 00:02 50.13198 -113.41307 25688 ft 504 kts 158°
2026-05-06 00:03 50.09909 -113.39615 25971 ft 509 kts 158°
2026-05-06 00:03 50.06523 -113.37876 26221 ft 513 kts 158°
2026-05-06 00:03 50.03127 -113.36135 26566 ft 515 kts 158°
2026-05-06 00:03 49.99948 -113.34509 26900 ft 517 kts 158°
2026-05-06 00:04 49.96526 -113.32761 27211 ft 519 kts 158°
2026-05-06 00:04 49.93085 -113.31006 27501 ft 522 kts 158°
2026-05-06 00:04 49.89621 -113.29241 27823 ft 525 kts 158°
2026-05-06 00:04 49.86131 -113.27464 28009 ft 530 kts 158°
2026-05-06 00:05 49.79126 -113.23909 28725 ft 530 kts 158°
2026-05-06 00:05 49.75614 -113.22130 28984 ft 533 kts 158°
2026-05-06 00:05 49.72134 -113.20335 29195 ft 536 kts 156°
2026-05-06 00:06 49.68726 -113.18041 29411 ft 533 kts 147°
2026-05-06 00:06 49.65456 -113.15347 29685 ft 534 kts 145°
2026-05-06 00:06 49.62190 -113.12559 29925 ft 537 kts 144°
2026-05-06 00:06 49.58930 -113.09758 30182 ft 539 kts 145°
2026-05-06 00:07 49.55638 -113.06952 30405 ft 541 kts 145°
2026-05-06 00:07 49.52330 -113.04169 30613 ft 543 kts 145°
2026-05-06 00:07 49.49005 -113.01406 30858 ft 544 kts 146°
2026-05-06 00:07 49.45792 -112.98761 31161 ft 544 kts 146°
2026-05-06 00:08 49.42456 -112.96031 31487 ft 543 kts 146°
2026-05-06 00:08 49.39169 -112.93348 31777 ft 542 kts 146°
2026-05-06 00:08 49.35835 -112.90629 32028 ft 543 kts 146°
2026-05-06 00:08 49.32509 -112.87917 32286 ft 543 kts 145°
2026-05-06 00:09 49.29169 -112.85196 32571 ft 543 kts 145°
2026-05-06 00:09 49.25837 -112.82484 32890 ft 542 kts 145°
2026-05-06 00:09 49.22504 -112.79776 33196 ft 541 kts 145°
2026-05-06 00:09 49.19185 -112.77082 33450 ft 541 kts 145°
2026-05-06 00:10 49.15855 -112.74382 33694 ft 541 kts 145°
2026-05-06 00:10 49.12574 -112.71727 33927 ft 541 kts 145°
2026-05-06 00:10 49.09249 -112.69039 34169 ft 541 kts 145°
2026-05-06 00:10 49.05921 -112.66354 34434 ft 541 kts 145°
2026-05-06 00:11 49.02596 -112.63678 34691 ft 539 kts 145°
2026-05-06 00:11 48.99293 -112.61023 34925 ft 538 kts 145°
2026-05-06 00:11 48.95991 -112.58373 35169 ft 536 kts 146°
2026-05-06 00:12 48.89365 -112.53060 35205 ft 539 kts 146°
2026-05-06 00:12 48.82790 -112.47810 35172 ft 534 kts 146°
2026-05-06 00:13 48.76242 -112.42599 35166 ft 534 kts 146°
2026-05-06 00:13 48.69622 -112.37332 35161 ft 540 kts 146°
2026-05-06 00:14 48.62918 -112.32017 35165 ft 548 kts 146°
2026-05-06 00:14 48.56170 -112.26691 35157 ft 553 kts 146°
2026-05-06 00:15 48.49342 -112.21323 35192 ft 555 kts 146°
2026-05-06 00:15 48.42488 -112.15950 35197 ft 556 kts 147°
2026-05-06 00:16 48.35633 -112.10591 35193 ft 555 kts 147°
2026-05-06 00:16 48.28831 -112.05289 35186 ft 554 kts 147°
2026-05-06 00:17 48.22008 -111.99986 35198 ft 551 kts 147°
2026-05-06 00:17 48.15366 -111.94838 35182 ft 549 kts 147°
2026-05-06 00:18 48.08581 -111.89595 35183 ft 548 kts 147°
2026-05-06 00:18 48.01837 -111.84398 35192 ft 547 kts 147°
2026-05-06 00:19 47.95122 -111.79238 35174 ft 546 kts 147°
2026-05-06 00:19 47.88367 -111.74064 35179 ft 546 kts 147°
2026-05-06 00:20 47.81608 -111.68901 35182 ft 547 kts 147°
2026-05-06 00:20 47.74833 -111.63743 35180 ft 547 kts 147°
2026-05-06 00:21 47.68102 -111.58633 35196 ft 547 kts 147°
2026-05-06 00:21 47.61322 -111.53499 35158 ft 548 kts 147°
2026-05-06 00:22 47.54528 -111.48371 35153 ft 548 kts 148°
2026-05-06 00:22 47.47726 -111.43249 35169 ft 548 kts 148°
2026-05-06 00:23 47.41081 -111.37817 35154 ft 545 kts 142°
2026-05-06 00:23 47.34701 -111.31926 35156 ft 544 kts 141°
2026-05-06 00:24 47.28303 -111.25961 35158 ft 545 kts 142°
2026-05-06 00:24 47.21866 -111.20046 35169 ft 545 kts 142°
2026-05-06 00:25 47.15412 -111.14183 35176 ft 545 kts 142°
2026-05-06 00:25 47.08949 -111.08339 35190 ft 546 kts 143°
2026-05-06 00:26 47.02526 -111.02543 35185 ft 545 kts 143°
2026-05-06 00:26 46.96196 -110.96845 35178 ft 545 kts 143°
2026-05-06 00:27 46.89739 -110.91048 35188 ft 545 kts 143°
2026-05-06 00:27 46.83275 -110.85261 35182 ft 544 kts 143°
2026-05-06 00:28 46.76818 -110.79495 35183 ft 544 kts 143°
2026-05-06 00:28 46.70398 -110.73779 35175 ft 544 kts 143°
2026-05-06 00:29 46.63943 -110.68049 35179 ft 543 kts 143°
2026-05-06 00:29 46.57492 -110.62338 35195 ft 543 kts 143°
2026-05-06 00:30 46.51076 -110.56674 35191 ft 543 kts 144°
2026-05-06 00:30 46.44623 -110.50993 35196 ft 541 kts 144°
2026-05-06 00:31 46.38190 -110.45347 35181 ft 539 kts 144°
2026-05-06 00:31 46.31784 -110.39740 35178 ft 537 kts 145°
2026-05-06 00:32 46.25397 -110.34165 35171 ft 535 kts 145°
2026-05-06 00:32 46.19074 -110.28660 35173 ft 534 kts 145°
2026-05-06 00:33 46.12719 -110.23142 35169 ft 532 kts 145°
2026-05-06 00:33 46.06383 -110.17656 35137 ft 531 kts 145°
2026-05-06 00:34 46.00053 -110.12189 35142 ft 530 kts 146°
2026-05-06 00:34 45.93939 -110.06923 35139 ft 530 kts 146°
2026-05-06 00:35 45.87655 -110.01525 35131 ft 530 kts 146°
2026-05-06 00:35 45.81479 -109.96234 35136 ft 531 kts 146°
2026-05-06 00:36 45.75141 -109.90819 35124 ft 531 kts 146°
2026-05-06 00:36 45.68792 -109.85408 35140 ft 531 kts 146°
2026-05-06 00:37 45.62479 -109.80042 35151 ft 531 kts 147°
2026-05-06 00:37 45.56129 -109.74660 35153 ft 531 kts 147°
2026-05-06 00:38 45.49783 -109.69296 35146 ft 530 kts 147°
2026-05-06 00:38 45.43438 -109.63946 35157 ft 529 kts 147°
2026-05-06 00:39 45.37108 -109.58623 35165 ft 529 kts 147°
2026-05-06 00:39 45.30832 -109.53359 35170 ft 528 kts 147°
2026-05-06 00:40 45.24512 -109.48072 35179 ft 528 kts 148°
2026-05-06 00:40 45.18185 -109.42793 35178 ft 528 kts 148°
2026-05-06 00:41 45.11905 -109.37565 35170 ft 528 kts 148°
2026-05-06 00:41 45.05556 -109.32296 35172 ft 528 kts 148°
2026-05-06 00:42 44.99224 -109.27053 35163 ft 528 kts 148°
2026-05-06 00:42 44.92880 -109.21814 35140 ft 528 kts 148°
2026-05-06 00:43 44.86544 -109.16596 35127 ft 527 kts 148°
2026-05-06 00:43 44.81284 -109.12273 35111 ft 527 kts 148°
2026-05-06 00:44 44.73908 -109.06226 35111 ft 528 kts 149°
2026-05-06 00:44 44.67571 -109.01045 35106 ft 527 kts 149°
2026-05-06 00:45 44.61366 -108.96050 35098 ft 526 kts 153°
2026-05-06 00:45 44.55806 -108.92583 35106 ft 526 kts 158°
2026-05-06 00:46 44.47906 -108.88149 35105 ft 526 kts 159°
2026-05-06 00:46 44.41119 -108.84297 35106 ft 526 kts 158°
2026-05-06 00:47 44.35503 -108.81046 35109 ft 526 kts 158°
2026-05-06 00:47 44.28751 -108.77117 35117 ft 526 kts 158°
2026-05-06 00:48 44.21992 -108.73193 35114 ft 526 kts 158°
2026-05-06 00:48 44.15233 -108.69285 35118 ft 525 kts 159°
2026-05-06 00:49 44.08522 -108.65418 35116 ft 526 kts 159°
2026-05-06 00:49 44.01779 -108.61542 35091 ft 525 kts 159°
2026-05-06 00:50 43.95013 -108.57662 35097 ft 525 kts 159°
2026-05-06 00:50 43.88264 -108.53801 35098 ft 525 kts 159°
2026-05-06 00:51 43.81544 -108.49966 35088 ft 525 kts 159°
2026-05-06 00:51 43.74802 -108.46127 35088 ft 526 kts 159°
2026-05-06 00:52 43.68014 -108.42272 35083 ft 526 kts 160°
2026-05-06 00:52 43.61235 -108.38431 35087 ft 527 kts 160°
2026-05-06 00:53 43.54452 -108.34597 35079 ft 528 kts 160°
2026-05-06 00:53 43.47716 -108.30788 35071 ft 528 kts 159°
2026-05-06 00:54 43.41320 -108.25743 35096 ft 529 kts 147°
2026-05-06 00:54 43.35217 -108.20066 35086 ft 530 kts 147°
2026-05-06 00:55 43.29107 -108.14419 35076 ft 530 kts 147°
2026-05-06 00:55 43.23000 -108.08873 35077 ft 530 kts 148°
2026-05-06 00:56 43.16842 -108.03331 35038 ft 530 kts 148°
2026-05-06 00:56 43.10830 -107.97935 35080 ft 529 kts 148°
2026-05-06 00:57 43.04671 -107.92414 35096 ft 529 kts 148°
2026-05-06 00:57 42.98524 -107.86915 35095 ft 529 kts 148°
2026-05-06 00:58 42.92402 -107.81451 35117 ft 530 kts 148°
2026-05-06 00:58 42.86224 -107.75951 35117 ft 530 kts 148°
2026-05-06 00:59 42.80048 -107.70468 35132 ft 530 kts 149°
2026-05-06 00:59 42.73878 -107.65000 35129 ft 529 kts 149°
2026-05-06 01:00 42.67756 -107.59587 35131 ft 528 kts 149°
2026-05-06 01:00 42.61613 -107.54170 35121 ft 525 kts 149°
2026-05-06 01:01 42.55481 -107.48777 35116 ft 525 kts 149°
2026-05-06 01:01 42.49353 -107.43400 35121 ft 524 kts 149°
2026-05-06 01:02 42.43288 -107.38089 35122 ft 522 kts 150°
2026-05-06 01:02 42.37193 -107.32766 35106 ft 520 kts 150°
2026-05-06 01:03 42.31124 -107.27476 35051 ft 518 kts 150°
2026-05-06 01:03 42.25083 -107.22224 35075 ft 515 kts 150°
2026-05-06 01:04 42.19057 -107.16997 35054 ft 514 kts 150°
2026-05-06 01:04 42.13046 -107.11796 35001 ft 513 kts 150°
2026-05-06 01:05 42.07080 -107.06644 35004 ft 512 kts 150°
2026-05-06 01:05 42.01077 -107.01472 35013 ft 512 kts 151°
2026-05-06 01:06 41.95235 -106.96447 34953 ft 512 kts 151°
2026-05-06 01:06 41.89308 -106.91152 34973 ft 512 kts 148°
2026-05-06 01:07 41.83550 -106.85616 34970 ft 513 kts 147°
2026-05-06 01:07 41.77756 -106.80033 34942 ft 513 kts 148°
2026-05-06 01:08 41.71932 -106.74500 34960 ft 513 kts 148°
2026-05-06 01:08 41.66098 -106.69008 34992 ft 513 kts 148°
2026-05-06 01:09 41.60254 -106.63526 34968 ft 513 kts 148°
2026-05-06 01:09 41.54457 -106.58092 34975 ft 512 kts 149°
2026-05-06 01:10 41.48628 -106.52639 34974 ft 511 kts 149°
2026-05-06 01:10 41.42812 -106.47210 34987 ft 510 kts 149°
2026-05-06 01:11 41.36998 -106.41796 34977 ft 509 kts 148°
2026-05-06 01:11 41.31190 -106.36400 34996 ft 509 kts 148°
2026-05-06 01:12 41.25433 -106.31063 35015 ft 508 kts 149°
2026-05-06 01:12 41.19652 -106.25714 35016 ft 505 kts 149°
2026-05-06 01:13 41.13883 -106.20388 35027 ft 504 kts 149°
2026-05-06 01:13 41.08176 -106.15132 35023 ft 503 kts 149°
2026-05-06 01:14 40.99579 -106.07235 35012 ft 501 kts 149°
2026-05-06 01:14 40.93855 -106.01991 35018 ft 500 kts 149°
2026-05-06 01:15 40.88551 -105.97144 35021 ft 501 kts 150°
2026-05-06 01:15 40.82855 -105.91947 35004 ft 500 kts 149°
2026-05-06 01:16 40.77130 -105.86734 35008 ft 500 kts 150°
2026-05-06 01:16 40.71411 -105.81538 34996 ft 500 kts 150°
2026-05-06 01:17 40.65681 -105.76343 34998 ft 499 kts 149°
2026-05-06 01:17 40.59977 -105.71182 34991 ft 499 kts 149°
2026-05-06 01:18 40.54302 -105.66057 34986 ft 498 kts 150°
2026-05-06 01:18 40.48855 -105.60417 34978 ft 503 kts 140°
2026-05-06 01:19 40.43876 -105.53963 34976 ft 501 kts 140°
2026-05-06 01:19 40.38870 -105.47623 35007 ft 500 kts 141°
2026-05-06 01:20 40.33472 -105.42015 35023 ft 489 kts 156°
2026-05-06 01:20 40.27444 -105.37998 35025 ft 485 kts 159°
2026-05-06 01:21 40.21447 -105.34082 35045 ft 485 kts 158°
2026-05-06 01:21 40.15432 -105.30062 35051 ft 486 kts 158°
2026-05-06 01:22 40.09425 -105.26019 35040 ft 485 kts 158°
2026-05-06 01:22 40.03426 -105.21998 35027 ft 483 kts 158°
2026-05-06 01:23 39.97776 -105.18222 35034 ft 482 kts 158°
2026-05-06 01:23 39.91848 -105.14248 35024 ft 483 kts 156°
2026-05-06 01:24 39.86281 -105.09256 35026 ft 487 kts 148°
2026-05-06 01:24 39.80924 -105.03871 35027 ft 486 kts 147°
2026-05-06 01:25 39.75866 -104.98814 34993 ft 484 kts 148°
2026-05-06 01:25 39.70526 -104.93561 35000 ft 484 kts 148°
2026-05-06 01:26 39.65153 -104.88324 35006 ft 483 kts 149°
2026-05-06 01:26 39.59784 -104.83109 35002 ft 482 kts 149°
2026-05-06 01:27 39.54414 -104.77902 34990 ft 481 kts 149°
2026-05-06 01:27 39.49058 -104.72716 34984 ft 481 kts 150°
2026-05-06 01:28 39.43724 -104.67560 34986 ft 481 kts 150°
2026-05-06 01:28 39.38358 -104.62382 34974 ft 482 kts 150°
2026-05-06 01:29 39.32989 -104.57211 34948 ft 482 kts 150°
2026-05-06 01:29 39.27608 -104.52040 34962 ft 482 kts 150°
2026-05-06 01:30 39.22257 -104.46908 34977 ft 482 kts 150°
2026-05-06 01:30 39.16865 -104.41747 34978 ft 483 kts 150°
2026-05-06 01:31 39.11468 -104.36591 34958 ft 483 kts 152°
2026-05-06 01:31 39.06069 -104.31443 34978 ft 484 kts 152°
2026-05-06 01:32 39.00647 -104.26283 34983 ft 485 kts 152°
2026-05-06 01:32 38.95246 -104.21153 34990 ft 485 kts 152°
2026-05-06 01:33 38.89845 -104.16030 34974 ft 486 kts 154°
2026-05-06 01:33 38.84394 -104.10875 34978 ft 488 kts 154°
2026-05-06 01:34 38.78924 -104.05711 34978 ft 489 kts 154°
2026-05-06 01:34 38.73443 -104.00545 34976 ft 489 kts 154°
2026-05-06 01:35 38.68081 -103.95499 34972 ft 489 kts 155°
2026-05-06 01:35 38.62636 -103.90386 34972 ft 489 kts 155°
2026-05-06 01:36 38.57147 -103.85243 34969 ft 489 kts 155°
2026-05-06 01:36 38.51666 -103.80116 34914 ft 489 kts 157°
2026-05-06 01:37 38.46181 -103.74996 34957 ft 489 kts 157°
2026-05-06 01:37 38.40677 -103.69872 34953 ft 490 kts 157°
2026-05-06 01:38 38.35168 -103.64750 34952 ft 491 kts 157°
2026-05-06 01:38 38.29683 -103.59657 34939 ft 491 kts 158°
2026-05-06 01:39 38.24168 -103.54548 34946 ft 491 kts 158°
2026-05-06 01:39 38.18746 -103.49536 34940 ft 491 kts 158°
2026-05-06 01:40 38.13121 -103.44345 34948 ft 491 kts 158°
2026-05-06 01:40 38.07586 -103.39248 34947 ft 491 kts 159°
2026-05-06 01:41 38.02087 -103.34193 34946 ft 492 kts 159°
2026-05-06 01:41 37.96562 -103.29125 34919 ft 492 kts 159°
2026-05-06 01:42 37.91009 -103.24040 34922 ft 492 kts 159°
2026-05-06 01:42 37.85455 -103.18961 34900 ft 491 kts 159°
2026-05-06 01:43 37.79942 -103.13930 34916 ft 490 kts 159°
2026-05-06 01:43 37.74413 -103.08898 34908 ft 490 kts 159°
2026-05-06 01:44 37.68870 -103.03862 34917 ft 490 kts 159°
2026-05-06 01:44 37.63474 -102.98967 34914 ft 490 kts 159°
2026-05-06 01:45 37.57954 -102.93968 34915 ft 490 kts 159°
2026-05-06 01:45 37.52394 -102.88944 34910 ft 490 kts 159°
2026-05-06 01:46 37.46858 -102.83948 34887 ft 489 kts 159°
2026-05-06 01:46 37.41321 -102.78960 34905 ft 488 kts 159°
2026-05-06 01:47 37.35795 -102.73996 34912 ft 488 kts 160°
2026-05-06 01:47 37.30299 -102.69069 34911 ft 489 kts 160°
2026-05-06 01:48 37.24747 -102.64097 34888 ft 488 kts 160°
2026-05-06 01:48 37.19218 -102.59153 34900 ft 488 kts 160°
2026-05-06 01:49 37.13721 -102.54249 34906 ft 487 kts 160°
2026-05-06 01:49 37.08162 -102.49299 34906 ft 487 kts 160°
2026-05-06 01:50 37.02660 -102.44408 34901 ft 486 kts 160°
2026-05-06 01:50 36.97333 -102.39682 34888 ft 486 kts 160°
2026-05-06 01:51 36.92288 -102.35212 34905 ft 486 kts 160°
2026-05-06 01:51 36.86772 -102.30336 34909 ft 486 kts 160°
2026-05-06 01:52 36.81247 -102.25459 34896 ft 485 kts 160°
2026-05-06 01:52 36.75726 -102.20593 34905 ft 485 kts 160°
2026-05-06 01:53 36.70222 -102.15753 34915 ft 484 kts 160°
2026-05-06 01:53 36.64712 -102.10916 34910 ft 484 kts 160°
2026-05-06 01:54 36.59204 -102.06089 34909 ft 483 kts 160°
2026-05-06 01:54 36.53738 -102.01309 34908 ft 484 kts 160°
2026-05-06 01:55 36.48323 -101.96583 34921 ft 486 kts 160°
2026-05-06 01:55 36.42776 -101.91748 34917 ft 487 kts 160°
2026-05-06 01:56 36.37216 -101.86909 34892 ft 487 kts 160°
2026-05-06 01:56 36.31692 -101.82109 34908 ft 488 kts 160°
2026-05-06 01:57 36.26130 -101.77285 34909 ft 488 kts 160°
2026-05-06 01:57 36.20552 -101.72457 34907 ft 489 kts 160°
2026-05-06 01:58 36.14973 -101.67636 34875 ft 488 kts 160°
2026-05-06 01:58 36.09435 -101.62856 34902 ft 487 kts 160°
2026-05-06 01:59 36.03870 -101.58066 34912 ft 487 kts 160°
2026-05-06 01:59 35.98322 -101.53298 34906 ft 487 kts 160°
2026-05-06 02:00 35.92750 -101.48515 34875 ft 486 kts 160°
2026-05-06 02:00 35.87231 -101.43785 34900 ft 485 kts 160°
2026-05-06 02:01 35.81674 -101.39025 34955 ft 487 kts 159°
2026-05-06 02:01 35.79015 -101.36330 34941 ft 505 kts 150°
2026-05-06 02:01 35.76519 -101.33265 34964 ft 509 kts 148°
2026-05-06 02:02 35.71581 -101.26954 34907 ft 511 kts 148°
2026-05-06 02:02 35.66641 -101.20651 34957 ft 511 kts 148°
2026-05-06 02:03 35.61699 -101.14451 34956 ft 511 kts 148°
2026-05-06 02:03 35.56691 -101.08225 34968 ft 511 kts 149°
2026-05-06 02:04 35.51677 -101.02008 34957 ft 512 kts 149°
2026-05-06 02:04 35.46756 -100.95911 34950 ft 512 kts 149°
2026-05-06 02:05 35.41739 -100.89704 34930 ft 512 kts 149°
2026-05-06 02:05 35.36717 -100.83502 34921 ft 512 kts 149°
2026-05-06 02:06 35.31691 -100.77305 34897 ft 512 kts 149°
2026-05-06 02:06 35.26675 -100.71134 34835 ft 511 kts 149°
2026-05-06 02:07 35.21695 -100.65015 34891 ft 509 kts 149°
2026-05-06 02:07 35.16694 -100.58886 34888 ft 509 kts 149°
2026-05-06 02:08 35.11691 -100.52768 34897 ft 509 kts 149°
2026-05-06 02:08 35.06690 -100.46662 34886 ft 508 kts 149°
2026-05-06 02:09 35.01709 -100.40589 34886 ft 507 kts 149°
2026-05-06 02:09 34.96743 -100.34546 34884 ft 507 kts 149°
2026-05-06 02:10 34.91745 -100.28478 34886 ft 507 kts 149°
2026-05-06 02:10 34.86749 -100.22421 34891 ft 507 kts 149°
2026-05-06 02:11 34.81732 -100.16353 34836 ft 508 kts 149°
2026-05-06 02:11 34.76746 -100.10331 34879 ft 508 kts 149°
2026-05-06 02:12 34.71719 -100.04270 34882 ft 510 kts 149°
2026-05-06 02:12 34.66901 -99.98472 34882 ft 511 kts 149°
2026-05-06 02:13 34.61833 -99.92381 34877 ft 512 kts 149°
2026-05-06 02:13 34.56791 -99.86333 34839 ft 512 kts 149°
2026-05-06 02:14 34.51709 -99.80249 34862 ft 514 kts 149°
2026-05-06 02:14 34.46603 -99.74148 34872 ft 515 kts 149°
2026-05-06 02:15 34.41495 -99.68053 34870 ft 515 kts 149°
2026-05-06 02:15 34.36409 -99.61993 34875 ft 516 kts 149°
2026-05-06 02:16 34.31513 -99.55526 34845 ft 543 kts 133°
2026-05-06 02:16 34.27735 -99.47504 34866 ft 551 kts 130°
2026-05-06 02:17 34.24042 -99.39386 34864 ft 551 kts 130°
2026-05-06 02:17 34.20268 -99.31340 34869 ft 550 kts 131°
2026-05-06 02:18 34.16436 -99.23335 34873 ft 550 kts 131°
2026-05-06 02:18 34.12593 -99.15347 34821 ft 550 kts 131°
2026-05-06 02:19 34.08807 -99.07447 34809 ft 533 kts 131°
2026-05-06 02:19 34.06978 -99.03632 34307 ft 529 kts 131°
2026-05-06 02:19 34.05218 -98.99975 33946 ft 524 kts 131°
2026-05-06 02:20 34.01752 -98.92803 33061 ft 517 kts 131°
2026-05-06 02:20 33.99989 -98.89160 32653 ft 512 kts 131°
2026-05-06 02:20 33.98274 -98.85615 32258 ft 508 kts 131°
2026-05-06 02:21 33.96495 -98.81943 31856 ft 504 kts 131°
2026-05-06 02:21 33.94738 -98.78318 31472 ft 499 kts 131°
2026-05-06 02:21 33.93021 -98.74779 31153 ft 493 kts 131°
2026-05-06 02:21 33.91289 -98.71216 30684 ft 492 kts 131°
2026-05-06 02:22 33.89563 -98.67668 30266 ft 489 kts 131°
2026-05-06 02:22 33.87848 -98.64145 29896 ft 485 kts 131°
2026-05-06 02:22 33.86146 -98.60650 29472 ft 481 kts 131°
2026-05-06 02:22 33.84458 -98.57190 29045 ft 477 kts 131°
2026-05-06 02:23 33.82781 -98.53757 28620 ft 474 kts 131°
2026-05-06 02:23 33.81119 -98.50358 28208 ft 470 kts 130°
2026-05-06 02:23 33.79469 -98.46988 27798 ft 466 kts 130°
2026-05-06 02:23 33.77826 -98.43635 27327 ft 463 kts 130°
2026-05-06 02:24 33.76198 -98.40316 26925 ft 460 kts 130°
2026-05-06 02:24 33.74582 -98.37026 26526 ft 457 kts 130°
2026-05-06 02:24 33.72969 -98.33744 26118 ft 454 kts 130°
2026-05-06 02:24 33.71367 -98.30487 25718 ft 451 kts 130°
2026-05-06 02:25 33.69793 -98.27289 25325 ft 449 kts 130°
2026-05-06 02:25 33.68210 -98.24077 24934 ft 446 kts 130°
2026-05-06 02:25 33.66631 -98.20874 24538 ft 444 kts 130°
2026-05-06 02:25 33.65062 -98.17693 24159 ft 441 kts 130°
2026-05-06 02:26 33.63499 -98.14529 23757 ft 439 kts 130°
2026-05-06 02:26 33.61942 -98.11391 23315 ft 439 kts 130°
2026-05-06 02:26 33.60370 -98.08231 22837 ft 437 kts 129°
2026-05-06 02:26 33.58818 -98.05111 22398 ft 434 kts 129°
2026-05-06 02:27 33.57294 -98.02049 21981 ft 432 kts 129°
2026-05-06 02:27 33.55835 -97.99119 21590 ft 429 kts 129°
2026-05-06 02:27 33.54301 -97.96040 21163 ft 426 kts 129°
2026-05-06 02:27 33.53299 -97.94032 20899 ft 424 kts 129°
2026-05-06 02:28 33.51786 -97.91001 20508 ft 422 kts 129°
2026-05-06 02:28 33.50286 -97.87995 20112 ft 419 kts 129°
2026-05-06 02:28 33.48797 -97.85006 19732 ft 417 kts 129°
2026-05-06 02:28 33.47317 -97.82037 19339 ft 415 kts 129°
2026-05-06 02:29 33.45360 -97.78112 18816 ft 412 kts 129°
2026-05-06 02:29 33.43890 -97.75167 18412 ft 411 kts 128°
2026-05-06 02:29 33.42902 -97.73189 18157 ft 409 kts 128°
2026-05-06 02:29 33.41444 -97.70272 17741 ft 407 kts 128°
2026-05-06 02:30 33.40016 -97.67417 17343 ft 404 kts 128°
2026-05-06 02:30 33.38548 -97.64513 16951 ft 399 kts 131°
2026-05-06 02:30 33.36808 -97.62031 16571 ft 383 kts 144°
2026-05-06 02:30 33.34886 -97.59861 16234 ft 377 kts 146°
2026-05-06 02:31 33.33009 -97.57766 16024 ft 369 kts 146°
2026-05-06 02:31 33.31135 -97.55622 15685 ft 366 kts 145°
2026-05-06 02:31 33.29342 -97.53530 15366 ft 363 kts 144°
2026-05-06 02:31 33.27544 -97.51419 15030 ft 361 kts 144°
2026-05-06 02:32 33.25763 -97.49328 14636 ft 358 kts 144°
2026-05-06 02:32 33.23996 -97.47255 14306 ft 355 kts 144°
2026-05-06 02:32 33.22234 -97.45191 13977 ft 353 kts 144°
2026-05-06 02:32 33.20487 -97.43146 13653 ft 350 kts 144°
2026-05-06 02:33 33.18755 -97.41120 13281 ft 348 kts 144°
2026-05-06 02:33 33.17611 -97.39783 13049 ft 346 kts 144°
2026-05-06 02:34 33.11978 -97.33202 12075 ft 332 kts 143°
2026-05-06 02:34 33.10360 -97.31307 12033 ft 320 kts 144°
2026-05-06 02:34 33.08798 -97.29477 12024 ft 309 kts 144°
2026-05-06 02:34 33.07269 -97.27695 12029 ft 306 kts 144°
2026-05-06 02:35 33.05740 -97.25919 12038 ft 308 kts 144°
2026-05-06 02:35 33.04212 -97.24144 12063 ft 310 kts 144°
2026-05-06 02:35 33.02677 -97.22355 12046 ft 306 kts 144°
2026-05-06 02:35 33.01174 -97.20600 12030 ft 297 kts 144°
2026-05-06 02:36 32.99855 -97.19058 12019 ft 286 kts 144°
2026-05-06 02:36 32.98384 -97.17567 11851 ft 267 kts 163°
2026-05-06 02:36 32.96690 -97.16971 11569 ft 248 kts 183°
2026-05-06 02:36 32.94981 -97.16817 11201 ft 245 kts 187°
2026-05-06 02:37 32.93280 -97.16746 10810 ft 250 kts 187°
2026-05-06 02:37 32.91531 -97.16678 10452 ft 254 kts 186°
2026-05-06 02:37 32.89766 -97.16600 10213 ft 252 kts 186°
2026-05-06 02:37 32.88011 -97.16514 9935 ft 253 kts 186°
2026-05-06 02:38 32.86243 -97.16423 9631 ft 254 kts 185°
2026-05-06 02:38 32.84476 -97.16328 9364 ft 253 kts 185°
2026-05-06 02:38 32.82723 -97.16232 9135 ft 251 kts 185°
2026-05-06 02:38 32.80988 -97.16136 8865 ft 250 kts 185°
2026-05-06 02:39 32.79253 -97.16055 8613 ft 249 kts 186°
2026-05-06 02:39 32.77542 -97.16045 8316 ft 243 kts 186°
2026-05-06 02:39 32.75849 -97.16054 7891 ft 243 kts 186°
2026-05-06 02:39 32.74156 -97.16063 7501 ft 242 kts 185°
2026-05-06 02:40 32.72541 -97.16069 7158 ft 240 kts 185°
2026-05-06 02:40 32.70867 -97.16073 6726 ft 242 kts 183°
2026-05-06 02:40 32.69189 -97.15723 6279 ft 250 kts 160°
2026-05-06 02:40 32.67733 -97.14560 5957 ft 249 kts 136°
2026-05-06 02:41 32.66834 -97.12874 5606 ft 245 kts 113°
2026-05-06 02:41 32.66560 -97.10904 5262 ft 240 kts 95°
2026-05-06 02:41 32.66722 -97.08959 4881 ft 237 kts 75°
2026-05-06 02:41 32.67518 -97.07279 4504 ft 234 kts 49°
2026-05-06 02:42 32.68819 -97.06166 4180 ft 229 kts 26°
2026-05-06 02:42 32.70318 -97.05611 3832 ft 223 kts
2026-05-06 02:42 32.71845 -97.05537 3482 ft 213 kts
2026-05-06 02:42 32.73278 -97.05542 3184 ft 196 kts
2026-05-06 02:43 32.74565 -97.05545 3191 ft 177 kts
2026-05-06 02:43 32.75789 -97.05543 3153 ft 170 kts
2026-05-06 02:43 32.76943 -97.05539 2934 ft 165 kts
2026-05-06 02:43 32.78068 -97.05533 2598 ft 158 kts
2026-05-06 02:44 32.79132 -97.05528 2358 ft 144 kts
2026-05-06 02:44 32.80098 -97.05525 2099 ft 132 kts
2026-05-06 02:44 32.81005 -97.05520 2036 ft 130 kts
2026-05-06 02:44 32.81924 -97.05515 1883 ft 136 kts
2026-05-06 02:45 32.82875 -97.05510 1677 ft 136 kts
2026-05-06 02:45 32.83755 -97.05511 1489 ft 133 kts
2026-05-06 02:45 32.84642 -97.05508 1335 ft 131 kts
2026-05-06 02:45 32.85485 -97.05499 1142 ft 134 kts 358°
2026-05-06 02:46 32.86398 -97.05499 951 ft 131 kts
2026-05-06 02:46 32.87285 -97.05483 745 ft 126 kts 357°
2026-05-06 02:46 32.88145 -97.05479 614 ft 120 kts 358°
2026-05-06 02:46 32.88889 -97.05478 595 ft 91 kts
2026-05-06 02:47 32.89374 -97.05473 602 ft 59 kts
2026-05-06 02:47 32.89749 -97.05469 609 ft 44 kts
2026-05-06 02:47 32.90009 -97.05351 603 ft 39 kts 29°
2026-05-06 02:47 32.90250 -97.05276 598 ft 35 kts 360°
2026-05-06 02:48 32.90438 -97.05274 601 ft 19 kts
2026-05-06 02:48 32.90565 -97.05273 601 ft 18 kts